Simultaneous Nadir Overpasses (SNOs) Predictions

Prediction of SNOs over PacNW region [( 10.00, 139.50) to ( 22.70, 165.60)] between AQUA and NPP Satellites:

Table of predicted SNOs over PacNW region for the next 30.0 days since TLE Epoch: 5/31/2014
Index Date (AQUA) Time (AQUA) AQUA Lat,Lon Date (NPP) Time (NPP) NPP Lat,Lon Distance(km) Time Diff (sec)
1 06/04/2014 03:28:48 10.07, 150.32 06/04/2014 03:30:02 9.74, 148.71 180.30 74
2 06/06/2014 15:32:27 10.00, 152.31 06/06/2014 15:28:57 5.12, 151.29 554.00 210
3 06/12/2014 02:39:22 10.11, 162.66 06/12/2014 02:39:28 9.86, 161.38 142.84 6
4 06/14/2014 16:21:50 10.23, 139.99 06/14/2014 16:18:24 10.28, 139.79 21.92 206
5 06/20/2014 03:28:45 10.06, 150.31 06/20/2014 03:30:19 9.73, 148.74 175.93 94
6 06/22/2014 15:32:23 10.05, 152.31 06/22/2014 15:28:54 6.35, 151.60 418.27 209




NCC Satellite Simultaneous Nadir Overpasses (SNOs) Prediction Service
